Time,TemperatureF,DewpointF,PressureIn,WindDirection,WindDirectionDegrees,WindSpeedMPH,WindSpeedGustMPH,Humidity,HourlyPrecipIn,Conditions,Clouds,dailyrainin,SolarRadiationWatts/m^2,SoftwareType,DateUTC
2013-01-14 03:00:00,30.0,17.0,-100.00,South,181,1.0,3.0,59,-99.99,,,0.00,-0.200000,,2013-01-14 11:00:00,
2013-01-14 03:53:00,30.0,17.0,-100.00,South,181,1.0,3.0,59,-99.99,,,0.00,-0.200000,,2013-01-14 11:53:00,
2013-01-14 04:00:00,30.0,20.0,-100.00,SW,228,1.0,4.0,66,-99.99,,,-99.99,15.200000,,2013-01-14 12:00:00,
2013-01-14 04:53:00,30.0,20.0,-100.00,SW,228,1.0,4.0,66,-99.99,,,-99.99,15.200000,,2013-01-14 12:53:00,
2013-01-14 05:00:00,32.0,21.0,-100.00,SSW,204,2.0,6.0,64,-99.99,,,0.00,-0.200000,,2013-01-14 13:00:00,
2013-01-14 05:53:00,32.0,21.0,-100.00,SSW,204,2.0,6.0,64,-99.99,,,0.00,-0.200000,,2013-01-14 13:53:00,
2013-01-14 06:00:00,30.0,20.0,-100.00,West,271,2.0,5.0,65,-99.99,,,0.00,-0.200000,,2013-01-14 14:00:00,
2013-01-14 06:53:00,30.0,20.0,-100.00,West,271,2.0,5.0,65,-99.99,,,0.00,-0.200000,,2013-01-14 14:53:00,
2013-01-14 07:00:00,31.0,21.0,-100.00,WSW,244,0.0,2.0,67,-99.99,,,0.00,-0.200000,,2013-01-14 15:00:00,
2013-01-14 07:53:00,31.0,21.0,-100.00,WSW,244,0.0,2.0,67,-99.99,,,0.00,-0.200000,,2013-01-14 15:53:00,
2013-01-14 08:00:00,32.0,22.0,-100.00,South,180,2.0,4.0,66,-99.99,,,0.00,1.500000,,2013-01-14 16:00:00,
2013-01-14 08:53:00,32.0,22.0,-100.00,South,180,2.0,4.0,66,-99.99,,,0.00,1.500000,,2013-01-14 16:53:00,
2013-01-14 09:00:00,33.0,25.0,-100.00,NW,318,1.0,4.0,70,-99.99,,,0.00,32.799999,,2013-01-14 17:00:00,
2013-01-14 09:53:00,33.0,25.0,-100.00,NW,318,1.0,4.0,70,-99.99,,,0.00,32.799999,,2013-01-14 17:53:00,
2013-01-14 10:00:00,38.0,28.0,-100.00,SSW,207,4.0,6.0,67,-99.99,,,0.00,118.500000,,2013-01-14 18:00:00,
2013-01-14 10:53:00,38.0,28.0,-100.00,SSW,207,4.0,6.0,67,-99.99,,,0.00,118.500000,,2013-01-14 18:53:00,
2013-01-14 11:00:00,37.0,26.0,-100.00,SW,228,4.0,7.0,64,-99.99,,,0.00,205.500000,,2013-01-14 19:00:00,
2013-01-14 11:53:00,37.0,26.0,-100.00,SW,228,4.0,7.0,64,-99.99,,,0.00,205.500000,,2013-01-14 19:53:00,
2013-01-14 13:00:00,38.0,25.0,-100.00,SSW,194,5.0,7.0,59,-99.99,,,0.00,273.600006,,2013-01-14 21:00:00,
2013-01-14 13:53:00,38.0,25.0,-100.00,SSW,194,5.0,7.0,59,-99.99,,,0.00,273.600006,,2013-01-14 21:53:00,
2013-01-14 14:00:00,32.0,17.0,-100.00,NNE,26,4.0,7.0,53,-99.99,,,0.00,236.699997,,2013-01-14 22:00:00,
2013-01-14 14:53:00,32.0,17.0,-100.00,NNE,26,4.0,7.0,53,-99.99,,,0.00,236.699997,,2013-01-14 22:53:00,
2013-01-14 15:00:00,37.0,20.0,-100.00,East,79,4.0,7.0,50,-99.99,,,-99.99,184.800003,,2013-01-14 23:00:00,
2013-01-14 15:53:00,37.0,20.0,-100.00,East,79,4.0,7.0,50,-99.99,,,-99.99,184.800003,,2013-01-14 23:53:00,
2013-01-14 16:00:00,38.0,19.0,-100.00,SE,134,4.0,7.0,46,-99.99,,,-99.99,73.599998,,2013-01-15 00:00:00,
2013-01-14 16:53:00,38.0,19.0,-100.00,SE,134,4.0,7.0,46,-99.99,,,-99.99,73.599998,,2013-01-15 00:53:00,
2013-01-14 17:00:00,35.0,14.0,-100.00,SSW,194,3.0,6.0,43,-99.99,,,0.00,10.800000,,2013-01-15 01:00:00,
2013-01-14 17:52:00,35.0,14.0,-100.00,SSW,194,3.0,6.0,43,-99.99,,,0.00,10.800000,,2013-01-15 01:52:00,
2013-01-14 18:00:00,35.0,18.0,-100.00,West,267,1.0,3.0,50,-99.99,,,0.00,2.400000,,2013-01-15 02:00:00,
2013-01-14 18:53:00,35.0,18.0,-100.00,West,267,1.0,3.0,50,-99.99,,,0.00,2.400000,,2013-01-15 02:53:00,
2013-01-14 19:00:00,37.0,20.0,-100.00,WSW,244,1.0,3.0,49,-99.99,,,0.00,-0.200000,,2013-01-15 03:00:00,
2013-01-14 19:53:00,37.0,20.0,-100.00,WSW,244,1.0,3.0,49,-99.99,,,0.00,-0.200000,,2013-01-15 03:53:00,
2013-01-14 20:00:00,34.0,15.0,-100.00,West,270,1.0,2.0,44,-99.99,,,-99.99,-0.200000,,2013-01-15 04:00:00,
2013-01-14 20:52:00,34.0,15.0,-100.00,West,270,1.0,2.0,44,-99.99,,,-99.99,-0.200000,,2013-01-15 04:52:00,
2013-01-14 21:00:00,32.0,15.0,-100.00,South,170,0.0,2.0,49,-99.99,,,-99.99,-0.200000,,2013-01-15 05:00:00,
2013-01-14 21:52:00,32.0,15.0,-100.00,South,170,0.0,2.0,49,-99.99,,,-99.99,-0.200000,,2013-01-15 05:52:00,
2013-01-14 22:00:00,32.0,16.0,-100.00,NE,55,1.0,2.0,51,-99.99,,,-99.99,-0.200000,,2013-01-15 06:00:00,
2013-01-14 22:53:00,32.0,16.0,-100.00,NE,55,1.0,2.0,51,-99.99,,,-99.99,-0.200000,,2013-01-15 06:53:00,
2013-01-14 23:00:00,38.0,21.0,-100.00,ENE,69,1.0,4.0,50,-99.99,,,-99.99,-0.200000,,2013-01-15 07:00:00,
2013-01-14 23:52:00,38.0,21.0,-100.00,ENE,69,1.0,4.0,50,-99.99,,,-99.99,-0.200000,,2013-01-15 07:52:00,